Tracking 18630 objects as of 23-May-2017
HD Live streaming from Space Station
objects crossing your sky now

SCOUT B-1 R/B

Track SCOUT B-1 R/B now!
10-day predictions


NORAD ID: 5438
Int'l Code: 1971-071B
Perigee: 632.3 km
Apogee: 784.6 km
Inclination: 50.1 °
Period: 98.8 minutes
Semi major axis: 7079 km
RCS: 0.747 m2 (medium)
Launch date: August 16, 1971
Source: United States (US)
Launch site: WALLOPS ISLAND (WLPIS)

Note: This is a ROCKET BODY
Your satellite tracking list
Your tracking list is empty





NASA's NSSDC Master Catalog

Two Line Element Set (TLE):
1  5438U 71071B   17142.62473084 -.00000066 +00000-0 +28626-4 0  9996
2  5438 050.1453 180.7959 0107596 115.0681 246.1462 14.57481679415994
Source of the keplerian elements: AFSPC